#timestamp,LO_Frequency,Hit,StdDev 
1503522015.7,286047000.9,N,0.4
1503522035.6,286047001.1,N,0.4
1503522055.4,286047000.0,N,0.5
1503522075.2,286046999.9,N,0.6
1503522095.1,286047000.7,N,0.5
1503522096.0,286047000.7,N,0.5
1503522115.8,286047000.2,N,0.5
1503522135.7,286047000.2,N,0.5
1503522155.5,286047002.6,Y,0.0
1503522175.3,286047000.1,P,0.3
1503522195.2,286047000.1,N,0.3
1503522215.0,286047000.1,N,0.2
1503522215.9,286047000.1,N,0.2
1503522235.8,286047002.7,Y,0.0
1503522255.6,286047000.2,P,0.0
1503522275.4,286047002.8,P,1.2
1503522295.3,286047002.8,N,1.3
1503522315.1,286046999.9,N,1.3
1503522335.9,286047007.0,Y,0.0
1503522355.7,286047010.7,P,4.8
1503522375.5,286047008.4,N,4.1
1503522395.4,286047007.0,N,3.5
1503522415.2,286047005.5,N,3.2
1503522435.0,286047003.4,N,3.1
1503522435.9,286047003.4,N,3.0
1503522455.8,286047004.0,N,2.9
1503522475.6,286047003.9,N,2.8
1503522495.5,286047001.7,N,2.8
1503522515.3,286047002.6,N,2.8
1503522535.1,286047000.1,N,3.0
1503522555.9,286047002.4,N,2.9
1503522575.7,286046999.7,N,3.0
1503522595.6,286047000.4,N,3.0
1503522615.4,286047000.2,N,3.1
1503522635.2,286047002.5,N,3.0
1503522655.1,286046999.8,N,3.0
1503522656.0,286046999.8,N,3.0
1503522675.8,286047002.7,N,2.9
1503522695.6,286046999.8,N,2.9
1503522715.5,286047002.3,N,2.9
1503522735.3,286047001.3,N,2.8
1503522755.2,286047002.0,N,2.8
1503522775.9,286047002.2,N,2.7
1503522795.7,286047002.4,N,2.7
1503522815.6,286047002.6,N,2.6
1503522835.4,286047002.5,N,2.6
1503522855.2,286046999.7,N,2.6
1503522875.1,286047000.2,N,2.6
1503522876.0,286047000.2,N,2.6
1503522895.8,286047002.5,N,2.1
1503522915.7,286047002.8,N,1.8
1503522935.5,286047002.2,N,1.5
1503522955.3,286047002.4,N,1.3
1503522975.2,286047002.2,N,1.3
1503522995.0,286047002.6,N,1.3
1503522995.9,286047002.6,N,1.2
1503523015.8,286047002.8,N,1.2
1503523035.6,286047002.0,N,1.2
1503523055.4,286047001.9,N,1.2
1503523075.3,286047004.4,Y,0.0
1503523095.1,286047000.0,P,0.8
1503523115.9,286047000.0,N,0.7
1503523135.7,286046999.8,N,0.7
1503523155.5,286047002.8,Y,0.0
1503523175.4,286046999.9,P,0.2
1503523195.2,286046999.8,N,0.2
1503523215.1,286047000.0,N,0.2
1503523216.0,286047000.0,N,0.2
1503523235.8,286047000.1,N,0.2
1503523255.6,286047000.0,N,0.2
1503523275.5,286046999.8,N,0.2
1503523295.3,286047002.3,Y,0.0
1503523315.2,286047002.8,P,1.4
1503523335.9,286047002.3,N,1.2
1503523355.7,286047002.1,N,1.1
1503523375.6,286047002.7,N,1.0
1503523395.4,286046999.7,N,1.3
1503523415.2,286047002.8,N,1.2
1503523435.1,286047000.2,N,1.3
1503523436.0,286047000.2,N,1.3
1503523455.8,286047002.7,N,1.3
1503523475.7,286047002.7,N,1.3
1503523495.5,286047001.6,N,1.2
1503523515.3,286047002.3,N,1.2
1503523535.2,286047002.7,N,1.2
1503523555.0,286047002.7,N,1.1
1503523555.9,286047002.7,N,1.1
1503523575.8,286047000.1,N,1.2
1503523595.6,286047002.6,N,1.1
1503523615.4,286047002.6,N,1.1
1503523635.3,286047002.5,N,1.1
1503523655.1,286047002.2,N,1.1
1503523675.8,286047002.7,N,1.1
1503523695.7,286047000.4,N,1.1
1503523715.5,286046999.9,N,1.1
1503523735.4,286047000.2,N,1.2
1503523755.2,286047000.1,N,1.2
1503523775.0,286047002.5,N,1.2
1503523775.9,286047002.5,N,1.2
1503523795.8,286047002.8,N,1.2
1503523815.6,286047000.1,N,1.2
1503523835.5,286047000.1,N,1.2
1503523855.3,286047002.5,N,1.2
1503523875.1,286047002.5,N,1.2
1503523895.9,286047002.3,N,1.2
1503523915.7,286047002.5,N,1.2
1503523935.5,286047002.0,N,1.1
1503523955.4,286047002.7,N,1.1
1503523975.2,286047002.1,N,1.1
1503523995.1,286047002.5,N,1.0
1503523996.0,286047002.5,N,1.0
1503524015.8,286047000.3,N,1.0
1503524035.6,286047002.8,N,1.1
1503524055.5,286046999.7,N,1.1
1503524075.3,286047002.5,N,1.1
1503524095.2,286047002.0,N,1.1
1503524115.9,286047001.8,N,1.1
1503524135.7,286047002.0,N,1.1
1503524155.6,286047001.3,N,1.0
1503524175.4,286047004.0,Y,0.0
1503524195.2,286047000.9,P,0.4
1503524215.1,286047000.3,N,0.6
1503524216.0,286047000.3,N,0.6
1503524235.8,286047000.6,N,0.5
1503524255.7,286047000.4,N,0.5
1503524275.5,286047000.2,N,0.5
1503524295.3,286047002.3,Y,0.0
1503524315.2,286046999.9,P,0.4
1503524335.0,286047000.2,N,0.3
1503524335.9,286047000.2,N,0.3
1503524355.8,286047000.0,N,0.3
1503524375.6,286046999.8,N,0.3
1503524395.4,286046999.8,N,0.3
1503524415.3,286047001.7,Y,0.0
1503524435.1,286047002.3,P,1.1
1503524455.9,286047000.1,N,1.0
1503524475.7,286047000.5,N,0.9
1503524495.5,286047000.7,N,0.8
1503524515.4,286046998.5,N,1.1
1503524535.2,286047001.2,N,1.1
1503524555.0,286047000.8,N,1.0
1503524556.0,286047000.8,N,1.0
1503524575.8,286047001.2,N,0.9
1503524595.6,286046998.5,N,1.1
1503524615.5,286046998.8,N,1.1
1503524635.3,286046998.7,N,1.2
1503524655.1,286046998.9,N,1.2
1503524675.9,286046999.6,N,1.1
1503524695.7,286046998.9,N,1.1
1503524715.6,286046996.6,Y,0.0
1503524735.4,286046998.8,P,0.6
1503524755.2,286046999.0,N,0.5
1503524775.1,286046999.5,N,0.5
1503524776.0,286046999.5,N,0.4
1503524795.8,286046998.6,Y,0.0
1503524815.7,286046998.2,P,0.6
1503524835.5,286046998.3,N,0.5
1503524855.3,286046996.9,P,0.9
1503524875.2,286046997.3,Y,0.0
1503524895.0,286046999.4,P,0.6
1503524895.9,286046999.4,N,0.6
1503524915.8,286046999.4,N,0.5
1503524935.6,286046996.6,Y,0.0
1503524955.5,286046998.6,P,0.2
1503524975.3,286046998.3,P,0.3
1503524995.1,286046997.8,P,0.5
1503525015.9,286041825.7,Y,0.0
1503525035.7,286046999.0,P,0.3
1503525055.6,286046999.6,N,0.5
1503525075.4,286046996.8,P,1.0
1503525095.2,286046997.0,N,1.1
1503525115.1,286046999.4,N,1.1
1503525116.0,286046999.4,N,1.1
1503525135.8,286046997.3,N,1.1
1503525155.7,286046998.0,N,1.0
1503525175.5,286046995.3,Y,0.0
1503525195.3,286046997.0,P,0.7
1503525215.2,286046997.1,P,0.6
1503525235.0,286046999.4,N,1.0
1503525235.9,286046999.4,N,1.1
1503525255.8,286046998.7,N,1.0
1503525275.6,286046998.7,N,0.9
1503525295.4,286046998.8,N,0.9
1503525315.3,286046999.6,N,0.9
1503525335.1,286046996.6,Y,0.0
1503525355.8,286046998.4,P,0.1
1503525375.7,286046998.8,P,0.2
1503525395.5,286046998.8,P,0.2
1503525415.4,286046998.3,Y,0.0
1503525435.2,286682706.0,P,317853.7
1503525455.0,286046998.2,N,299675.5
1503525455.9,286046998.2,N,275269.5
1503525475.8,286047000.9,N,254282.8
1503525495.6,286047001.1,N,236913.9
1503525515.5,286046998.5,N,222451.0
1503525535.3,286047001.1,N,210240.2
1503525555.1,286046999.9,N,199783.3
1503525575.9,286047000.9,N,190711.9
1503525595.7,286046998.5,N,182752.8
